Regional Weather Roundup
Issued by NWS Sterling, VA

Home | Current Version | Previous Version | Text Only | Print | Product List | Glossary On
Versions: 1 2 3 4 5 6 7 8 9 10 11 12 13 14 15 16 17 18 19 20 21 22 23 24 25 26 27 28 29 30 31 32 33 34 35 36 37 38 39 40 41 42 43 44 45
000
ASUS41 KLWX 281910
RWRLWX

REGIONAL WEATHER ROUNDUP
NATIONAL WEATHER SERVICE BALTIMORE MD/WASHINGTON DC
300 PM EDT TUE JUL 28 2015

Note: "FAIR" indicates few or no clouds below 12,000 feet
with no significant weather and/or obstructions to visibility.
 TC=TEMPERATURE CELSIUS

 * =Non NWS site. Station does not report precipitation (e.g. rain,
    snow, etc.), thunder, or fog.

DCZ001-MDZ009-015-VAZ040>042-051-053>054-282000-
WASHINGTON METRO

CITY           SKY/WX    TMP DP  RH WIND       PRES   REMARKS
WASHINGTON NAT PTSUNNY   92  73  53 S5        29.96F HX 100
DULLES         PTSUNNY   89  72  56 VRB3      29.97F HX  96
ANDREWS AFB    PTSUNNY   88  73  60 NE9       29.96F HX  96
FT BELVOIR     SUNNY     91  73  55 SE9       29.95F HX  98
QUANTICO       PTSUNNY   87  75  67 S3        29.97S HX  96
COLLEGE PARK*  SUNNY     88  68  51 CALM      29.96S HX  91
LEESBURG*      PTSUNNY   90  73  58 CALM      29.98F HX  98
MANASSAS*      MOSUNNY   88  73  62 S5          N/A  HX  96
GAITHERSBURG*  MOSUNNY   88  72  58 NE5       30.01F HX  94

$$

MDZ006>007-011-014-282000-
BALTIMORE METRO

CITY           SKY/WX    TMP DP  RH WIND       PRES   REMARKS
BWI AIRPORT    MOSUNNY   88  69  53 E7        29.96F HX  92
MD SCIENCE CTR   N/A     90  68  48 MISG      29.96F HX  94
MARTIN STATE   MOSUNNY   90  75  62 SE6       29.98F HX 100
ANNAPOLIS      SUNNY     84  71  65 SE7       29.97F
FORT MEADE*    MOSUNNY   88  70  55 E5        29.99F HX  92

$$

MDZ012-015-019>023-282000-
MARYLAND EASTERN SHORE

CITY           SKY/WX    TMP DP  RH WIND       PRES   REMARKS
OCEAN CITY     SUNNY     83  72  69 S9        29.98F
SALISBURY      MOSUNNY   86  75  69 S6        29.96F HX  95
BAY BRIDGE AP*   N/A     86  72  62 W5        29.97F HX  92
CAMBRIDGE*     MOSUNNY   90  70  51 SW3       29.96F HX  95
EASTON*        MOSUNNY   90  73  58 CALM      30.00F HX  98

$$

MDZ017>025-282000-
SOUTHERN MARYLAND

CITY           SKY/WX    TMP DP  RH WIND       PRES   REMARKS
PATUXENT RIVER MOSUNNY   85  75  72 SE10      29.97F HX  93
ST INIGOES     MOSUNNY   86  76  71 VRB7      29.97S HX  96
LEONARDTOWN*   MOSUNNY   84  72  65 SE6       29.99S

$$

MDZ003>005-282000-
NORTH CENTRAL MARYLAND

CITY           SKY/WX    TMP DP  RH WIND       PRES   REMARKS
FREDERICK*     MOSUNNY   90  72  55 VRB3      30.00F HX  96
HAGERSTOWN APT MOSUNNY   87  68  52 VRB5      29.99F HX  90
WESTMINSTER*   SUNNY     90  73  58 CALM      30.00F HX  98

$$

MDZ501>502-282000-
WESTERN MARYLAND

CITY           SKY/WX    TMP DP  RH WIND       PRES   REMARKS
OAKLAND*       MOSUNNY   79  79 100 SE5       30.11F
CUMBERLAND*    MOSUNNY   90  68  48 CALM      30.03F HX  93

$$

VAZ025>031-282000-
SHENANDOAH VALLEY

CITY           SKY/WX    TMP DP  RH WIND       PRES   REMARKS
WINCHESTER*    PTSUNNY   90  70  51 SE3       29.99F HX  95
FRONT ROYAL*   MOCLDY    84  73  70 E3        29.98F HX  91
LURAY*         CLOUDY    88  72  58 NE5       29.99F HX  94
NEW MARKET*    FAIR      85  72  63 CALM      29.97F HX  91
STAUNTON*      PTSUNNY   89  71  55 NE3       30.02F HX  95
WAYNESBORO*    FAIR      83  72  70 S6        30.02F

$$

WVZ021-048>050-054>055-282000-
EASTERN WEST VIRGINIA PANHANDLE

CITY           SKY/WX    TMP DP  RH WIND       PRES   REMARKS
MARTINSBURG    PTSUNNY   87  68  52 E3        29.99F HX  90
PETERSBURG*    MOSUNNY  N/A N/A N/A CALM      30.00F

$$

VAZ036>039-050-282000-
CENTRAL FOOTHILLS

CITY           SKY/WX    TMP DP  RH WIND       PRES   REMARKS
CHARLOTTESVILL PTSUNNY   86  74  67 E6        29.97F HX  94
CULPEPER*      PTSUNNY   84  74  71 CALM      29.98S HX  92
ORANGE*        MOSUNNY   90  73  58 SE6       29.99F HX  98
GORDONSVILLE*  CLOUDY    77  75  94 S12       29.98S FOG
WARRENTON*     FAIR      90  75  60 NE3       29.97S HX 100

$$

VAZ055>057-282000-
NORTH AND CENTRAL PIEDMONT

CITY           SKY/WX    TMP DP  RH WIND       PRES   REMARKS
FREDERICKSBRG* SUNNY     89  76  64 SE5       29.96S HX 100
STAFFORD*      CLOUDY    90  71  54 E6        30.00S HX  96

$$

NCZ024-NYZ072-PAZ021-071-VAZ022-071-282000-
OTHER REGIONAL OBSERVATIONS

CITY           SKY/WX    TMP DP  RH WIND       PRES   REMARKS
NEW YORK CITY  SUNNY     95  60  31 VRB6      29.97F HX  95
PHILADELPHIA   PTSUNNY   91  67  44 S7        29.96F HX  94
PITTSBURGH     PTSUNNY   89  63  41 E8        30.01F HX  90
ROANOKE        PTSUNNY   88  70  55 SW6       30.01F HX  93
RICHMOND       CLOUDY    80  75  84 S13       30.00S
RALEIGH        PTSUNNY   90  72  55 S10G18    29.98F HX  97

$$

ANZ530>537-282000-
MARINE OBSERVATIONS

STATION/POSITION TIME  TEMP    WIND        PRES
                       AIR SEA DIR/SP/G
                 (UTC) (F)     (DEG/KT/KT) (MB)
THOMAS PT LIGHT  1800   82        CALM     1015.7
BALT KEY BRIDGE  1800   82     130/  5/  7 1015.1F
COVE POINT       1800   80     180/  6/  8 1016.0F
LEWISETTA        1800   83 82  180/ 10/ 14 1014.8F
SOLOMONS ISLAND  1800      82                N/A

$$



USA.gov is the U.S. government's official web portal to all federal, state and local government web resources and services.